Location: Unspecified
(0.0000°N, 0.0000°E)
Time: 17:18:30
(UTC+00:00)

COSMOS 2251 DEB - Pass Details

Date: 19 February 2026
Orbit: 744 x 1394 km, 73.9° (Epoch: 2 March)

Event Time Altitude Azimuth Distance (km) Brightness Sun altitude
Exits shadow 05:10:52 14° 249° (WSW) 3,093 ? -15.4°
Drops below altitude 10° 05:13:53 10° 228° (SW) 3,414 ? -14.7°
Sets 05:18:47 0° 204° (SSW) 4,443 ? -13.5°
